Location: Unspecified
(49.8170°N, 0.0000°E)
Time: 10:44:24
(UTC+00:00)

Cosmos 1850 Rocket - Visible Passes

Search period start: 04 April 2026 00:00
Search period end: 14 April 2026 00:00
Orbit: 750 x 781 km, 74.0° (Epoch: 29 March)

Date Brightness Start Highest point End Pass type
(mag) Time Alt. Az. Time Alt. Az. Time Alt. Az.
4 Apr 6.9 01:05:14 10° N 01:07:45 13° NE 01:10:15 10° ENE visible
4 Apr 4.5 02:45:48 10° NNW 02:50:58 58° ENE 02:56:04 10° SE visible
4 Apr 5.0 04:28:31 10° NW 04:32:33 23° W 04:36:33 10° SSW visible
4 Apr 6.6 19:10:15 10° WSW 19:14:30 24° NW 19:18:44 10° N visible
5 Apr 5.3 02:08:00 10° NNW 02:12:53 37° ENE 02:17:40 10° SE visible
5 Apr 4.4 03:50:06 10° NW 03:54:53 37° WSW 03:59:35 10° S visible
6 Apr 6.0 01:30:21 10° N 01:34:40 25° NE 01:38:56 10° ESE visible
6 Apr 3.9 03:11:57 10° NNW 03:17:05 61° WSW 03:21:07 16° S visible
6 Apr 7.0 19:39:12 10° WNW 19:41:27 13° NW 19:43:42 10° NNW visible
7 Apr 6.5 00:52:50 10° N 00:56:20 18° NE 00:59:49 10° E visible
7 Apr 3.9 02:33:57 10° NNW 02:39:12 84° ENE 02:41:52 29° SSE visible
7 Apr 5.5 04:17:29 10° WNW 04:20:27 15° W 04:21:58 14° WSW visible
8 Apr 6.8 00:15:41 10° NNE 00:17:53 13° NE 00:20:06 10° ENE visible
8 Apr 4.6 01:56:04 10° NNW 02:01:11 53° ENE 02:03:21 32° ESE visible
8 Apr 4.9 03:38:39 10° NW 03:42:51 25° W 03:43:28 25° WSW visible
9 Apr 5.4 01:18:18 10° N 01:23:04 35° NE 01:25:11 25° E visible
9 Apr 4.3 03:00:18 10° NW 03:05:09 41° WSW 03:05:19 40° WSW visible
10 Apr 6.0 00:40:39 10° N 00:44:50 24° NE 00:47:12 17° E visible
10 Apr 3.8 02:22:10 10° NNW 02:27:20 67° WSW 02:27:20 67° WSW visible
11 Apr 6.5 00:03:11 10° N 00:06:29 17° NE 00:09:21 11° E visible
11 Apr 4.0 01:44:11 10° NNW 01:49:25 78° ENE 01:49:31 77° E visible
11 Apr 5.7 03:27:30 10° NW 03:29:40 16° W 03:29:40 16° W visible
11 Apr 6.7 23:26:10 10° NNE 23:28:01 12° NE 23:29:51 10° ENE visible
12 Apr 4.7 01:06:20 10° NNW 01:11:23 49° ENE 01:11:46 48° ENE visible
12 Apr 5.2 02:48:48 10° NW 02:51:56 25° WNW 02:51:56 25° WNW visible
13 Apr 5.4 00:28:35 10° N 00:33:15 32° NE 00:34:06 30° ENE visible
13 Apr 4.7 02:10:29 10° NW 02:14:16 38° WNW 02:14:16 38° WNW visible
13 Apr 5.9 23:50:57 10° N 23:54:59 22° NE 23:56:29 19° ENE visible
